Theta_e
309 309 309 310 310 310 310 310 310 310 310 310 310 311 312 312 312 310 307 305 299 296 298 301 303 301 300 299 296 299 297 300 299 296 294 294 293 295 294 296 295 294 292 291 291 288 285 301 299 295 303 304 303 303
309 309 309 309 309 309 310 310 309 309 309 309 309 310 311 312 312 311 302 304 304 299 299 299 302 304 304 303 301 299 299 299 302 298 296 297 294 294 295 290 297 292 297 296 296 296 301 304 305 306 304 305 304 305
309 309 309 309 309 309 309 309 309 309 309 308 308 309 311 311 312 311 305 304 303 299 302 303 306 309 308 306 308 299 301 303 304 304 302 299 295 297 292 292 294 297 299 296 295 299 299 302 305 306 306 306 308 308
309 309 309 309 309 309 309 308 309 309 308 307 308 309 310 311 310 310 305 306 302 300 300 304 310 309 312 309 307 307 306 308 307 305 302 299 297 300 296 294 293 291 294 291 295 298 298 303 301 302 304 306 307 309
308 308 308 309 309 309 309 308 308 307 307 307 309 310 310 309 310 310 307 306 304 302 300 303 308 307 310 314 311 307 307 306 304 303 301 298 300 296 298 292 287 288 286 286 286 293 292 294 299 302 304 304 307 308
307 307 308 308 308 308 307 307 307 307 308 308 309 310 309 309 309 306 305 306 307 304 303 298 306 306 310 312 312 310 310 308 305 301 296 294 295 292 288 287 289 292 294 294 291 295 296 297 298 299 299 302 304 306
305 306 306 306 307 307 306 307 307 307 307 307 308 308 309 308 308 305 306 307 306 307 302 299 302 308 308 309 309 309 308 305 303 296 294 295 294 295 290 286 292 295 296 297 298 295 294 297 296 299 298 300 304 307
304 305 305 305 305 306 306 306 306 306 306 307 308 308 309 308 307 305 308 308 309 305 304 300 301 304 308 305 305 308 305 302 297 295 296 293 295 294 287 292 295 296 296 295 296 298 297 299 299 297 299 298 300 302
304 304 304 305 305 303 304 304 305 306 307 307 307 308 310 308 306 306 310 311 311 305 300 302 298 297 308 304 305 306 303 293 298 293 293 295 293 288 291 294 293 294 293 294 296 296 296 295 295 297 297 297 296 300
303 304 304 304 305 305 304 304 306 306 306 307 306 304 305 305 308 309 308 308 307 308 306 301 304 302 305 303 303 304 304 292 288 291 295 292 291 295 296 296 296 296 295 296 293 292 293 292 294 295 296 297 298 300
303 304 304 304 304 304 304 305 306 305 306 302 298 298 303 308 308 308 303 304 305 303 305 306 304 302 305 301 301 302 297 294 286 288 288 286 286 293 296 295 296 296 296 296 296 296 296 296 295 296 296 298 299 300
303 303 303 303 302 302 304 305 305 302 301 301 300 303 303 303 306 302 299 301 299 298 303 303 302 304 304 306 302 300 293 294 283 291 287 285 292 295 294 294 295 295 295 295 295 294 295 296 297 298 298 299 300 301
303 303 302 302 302 303 305 305 303 303 303 303 301 299 300 302 295 296 293 297 298 302 302 302 300 303 303 303 299 295 289 287 293 287 285 288 294 292 293 293 293 295 295 295 294 295 295 296 298 298 298 301 302 301
303 301 301 302 303 304 303 302 302 303 299 297 298 289 296 295 299 300 300 300 302 304 303 302 301 300 299 296 294 289 292 292 284 282 282 291 291 292 292 293 294 292 293 293 294 296 297 298 299 300 300 301 302 301
301 301 302 302 303 302 301 303 304 303 298 297 300 290 297 300 302 303 304 304 303 304 303 301 299 299 295 292 292 289 284 282 285 285 291 292 293 291 291 292 293 293 293 293 295 295 296 296 298 300 303 304 303 303
301 301 303 303 301 301 302 303 303 303 300 298 298 299 301 300 301 303 304 303 305 303 303 301 296 293 292 292 288 285 283 282 288 293 293 294 291 290 291 294 293 293 293 293 294 294 294 294 294 295 297 297 297 298
301 297 300 301 301 302 303 302 303 301 300 301 302 306 304 301 301 303 305 306 305 304 299 297 290 290 294 290 288 291 289 292 295 295 295 293 290 290 293 293 293 293 293 293 293 293 293 294 294 292 291 294 293 293
297 300 301 302 301 300 302 303 302 303 300 305 302 304 303 304 303 305 307 307 306 303 300 296 297 291 289 287 290 295 296 297 296 295 293 291 291 293 294 293 293 293 293 293 293 293 292 292 291 290 291 292 291 290
299 300 301 302 301 298 298 301 304 299 303 304 304 304 304 304 305 306 306 305 305 304 300 298 293 292 293 296 296 297 298 297 294 295 293 292 292 294 293 293 293 293 293 292 292 292 292 291 291 291 291 291 289 289
301 301 301 302 304 300 298 300 306 301 301 303 304 305 304 304 306 305 304 304 304 302 298 296 295 298 298 300 300 299 296 296 295 293 291 291 293 294 293 293 292 292 292 292 292 291 292 291 291 291 290 289 288 288
300 300 302 304 304 302 298 299 300 303 303 302 304 303 304 306 305 304 304 304 302 300 298 299 300 300 300 299 299 297 296 296 294 293 291 291 293 293 294 294 293 292 291 291 290 290 290 290 291 290 290 290 290 289
300 301 301 304 301 302 300 303 301 304 301 303 303 304 303 302 302 304 304 303 302 303 302 301 301 300 297 296 296 298 297 296 295 293 291 292 290 292 292 293 292 291 291 291 291 290 290 290 290 290 290 290 290 290
302 300 300 300 298 296 295 304 298 300 298 301 303 299 300 302 304 305 303 303 303 304 303 301 300 300 297 297 297 296 297 295 293 292 293 292 292 292 293 293 293 291 290 290 292 291 290 288 289 290 291 292 291 291
302 299 297 297 298 294 301 298 301 300 301 300 300 298 299 302 305 303 301 302 303 303 301 299 298 295 296 296 295 296 295 295 293 293 294 292 291 292 293 293 293 292 292 292 292 292 292 291 290 291 291 291 291 290
291 291 294 288 296 294 294 296 297 298 297 298 298 299 301 303 300 298 299 302 302 302 300 299 299 298 297 296 296 296 296 295 293 292 293 294 292 292 292 292 293 293 294 292 291 291 291 292 292 291 291 291 290 290
287 292 289 294 294 293 294 293 294 295 297 296 299 302 302 300 296 296 301 304 303 303 300 300 299 297 296 297 295 295 295 296 294 292 293 294 293 291 290 290 290 291 295 294 293 292 291 292 291 291 291 291 287 290
286 289 295 299 297 297 296 298 298 297 296 295 297 298 298 294 295 301 306 307 306 307 305 303 301 300 299 296 297 297 297 296 294 294 295 295 295 295 293 291 290 292 295 295 295 294 293 292 292 292 292 292 291 291
291 292 290 293 294 296 292 293 293 294 297 300 299 295 295 296 299 307 308 310 309 307 302 302 302 302 300 298 298 296 295 294 295 295 295 295 296 296 295 296 297 285 297 297 296 296 296 295 292 291 290 289 289 289
290 294 294 290 292 293 293 293 294 298 301 299 295 295 299 305 309 307 309 310 306 302 299 297 295 299 298 298 298 297 294 294 292 290 290 290 291 293 296 296 296 297 298 296 283 288 293 292 291 291 290 289 289 289
291 295 292 291 290 290 294 297 296 299 300 300 300 300 300 301 304 307 307 307 305 303 301 301 299 299 296 295 294 295 295 295 295 294 292 292 293 296 296 296 296 296 296 294 292 290 284 289 287 290 289 289 289 289
295 294 292 292 291 294 297 299 300 300 300 299 300 298 298 301 304 306 306 308 308 306 302 300 301 300 300 297 295 295 293 296 297 298 298 298 298 298 298 297 298 297 296 294 292 291 290 290 289 288 288 287 286 287
294 292 291 289 291 297 300 298 298 297 299 298 299 300 300 299 298 303 308 309 306 303 298 301 302 300 301 300 299 300 291 300 298 298 298 298 299 298 298 299 299 298 297 295 293 292 291 289 289 288 288 287 286 286
293 294 294 293 292 294 298 297 297 297 299 298 299 300 300 300 298 306 310 311 310 308 305 304 306 307 304 301 298 299 294 301 297 290 290 290 290 292 298 299 299 299 298 296 293 292 291 289 289 288 288 287 287 286
Wind_Speed
18 19 19 20 20 20 20 21 23 24 26 26 25 24 20 17 15 4 3 4 2 2 5 3 3 3 3 3 3 2 3 3 1 4 3 3 4 3 3 4 5 8 7 6 5 7 8 8 9 8 6 2 5 7
19 19 19 19 20 21 20 20 24 27 27 27 26 25 21 18 13 4 3 1 2 4 4 3 9 14 11 12 5 2 3 2 2 2 2 2 4 3 4 9 1 6 8 5 9 6 2 12 5 8 2 5 3 5
19 20 20 20 21 22 22 23 22 25 28 27 27 26 23 19 13 5 3 2 2 3 4 4 2 2 2 7 6 4 3 3 2 2 1 1 5 2 4 5 4 2 10 5 3 5 10 8 9 8 10 12 12 14
19 20 20 20 21 22 24 23 22 25 26 28 27 25 24 18 12 6 3 3 3 0 3 2 3 3 5 2 5 6 1 2 2 1 1 0 1 3 3 4 5 7 10 11 7 7 16 6 16 17 21 19 17 16
19 19 20 21 21 22 23 24 25 25 27 28 28 28 26 19 12 4 5 4 3 3 2 4 8 1 4 4 7 3 3 3 3 1 3 5 4 6 3 5 2 5 5 4 4 13 6 14 17 22 16 19 19 17
19 19 20 20 21 22 23 26 25 26 28 30 30 29 27 19 9 4 3 4 5 3 2 2 3 3 4 6 8 9 5 4 3 5 4 3 2 2 3 1 1 6 8 7 5 16 12 13 13 14 18 19 19 19
20 21 21 21 22 22 24 24 27 29 30 31 28 27 20 10 3 1 2 4 7 2 2 3 2 2 4 2 3 4 7 5 5 3 3 2 4 3 2 3 8 12 13 13 11 9 12 9 11 13 15 18 19 19
21 22 22 22 23 23 24 26 26 28 31 30 28 25 9 10 4 2 3 5 3 2 2 2 3 3 5 3 2 3 3 3 6 3 2 2 2 1 1 8 12 16 17 14 14 13 14 15 12 14 12 15 18 14
22 23 23 23 23 25 24 26 27 28 30 30 25 5 3 2 1 1 12 9 3 2 1 1 3 4 3 2 1 2 2 4 2 3 2 2 1 2 6 13 16 16 15 16 18 18 15 14 16 14 12 16 16 14
22 23 23 23 23 23 24 25 24 27 30 21 4 2 2 2 13 9 3 2 2 1 0 2 0 2 3 2 2 1 3 2 2 3 2 2 1 1 5 11 12 15 17 16 18 16 16 16 16 15 14 14 12 14
23 23 24 24 24 24 24 22 21 27 9 6 7 4 6 12 2 2 1 1 1 2 2 1 2 3 2 2 2 3 3 3 2 1 2 1 3 1 11 14 14 16 18 19 17 16 17 14 15 15 13 13 11 12
24 24 25 25 26 25 23 20 18 9 5 6 6 6 4 3 0 2 1 1 2 1 1 1 2 1 2 1 0 3 2 1 2 1 1 2 1 9 14 18 19 18 18 17 15 17 16 17 16 15 14 13 11 8
25 25 27 27 27 23 15 17 19 16 11 2 2 3 1 2 2 2 1 1 1 1 2 1 1 1 2 2 3 2 3 3 2 0 2 3 6 12 15 14 18 19 17 17 17 16 17 17 16 15 13 12 9 7
25 28 29 27 18 15 21 23 22 10 3 1 2 5 1 1 1 1 1 1 2 1 2 1 3 2 2 2 2 2 2 2 1 2 2 5 9 13 14 15 16 18 18 17 17 17 17 14 12 12 10 9 5 4
27 29 29 11 15 24 27 26 20 2 2 2 1 2 2 2 2 1 1 1 2 1 1 3 3 1 3 3 3 2 1 1 1 2 4 5 10 11 14 16 16 15 15 15 16 15 15 17 16 13 7 5 4 3
26 24 1 10 24 27 30 15 1 2 2 2 2 3 2 2 1 1 1 2 1 2 2 2 2 2 3 2 1 2 1 1 2 2 3 5 10 10 13 14 12 13 13 14 14 14 14 15 14 16 20 18 17 17
21 5 10 22 27 28 21 3 2 3 2 2 3 3 4 4 4 1 1 1 1 1 2 1 2 3 2 1 1 1 1 3 2 2 2 5 8 11 10 12 11 12 13 13 13 15 14 14 16 18 17 15 15 16
6 13 24 25 20 11 2 2 2 3 3 3 3 2 2 2 2 1 1 1 0 2 1 2 3 2 1 1 1 1 2 1 1 2 4 6 8 8 8 10 10 10 11 12 13 12 15 16 14 10 13 12 13 15
17 18 26 22 9 4 3 2 2 3 2 2 3 2 2 1 0 1 2 3 4 3 5 2 2 1 2 2 1 1 1 1 2 2 4 6 7 7 8 9 10 11 11 12 12 9 9 13 11 9 9 9 11 10
23 17 12 14 4 2 3 2 1 3 3 3 3 2 2 2 2 2 3 2 2 1 2 1 1 2 2 2 2 2 4 4 3 2 3 4 4 6 8 7 7 7 7 9 9 11 8 10 10 10 11 11 11 11
10 4 10 3 2 3 2 3 3 2 4 3 2 3 1 2 2 3 2 2 1 1 2 2 2 3 3 4 4 5 5 4 4 3 3 3 3 4 6 6 6 7 8 8 8 9 11 9 9 9 10 10 10 11
3 8 3 3 3 3 3 3 3 4 3 3 4 1 1 1 2 2 3 2 1 2 2 3 3 5 5 6 5 5 7 7 7 6 5 4 5 5 6 6 7 7 7 7 7 8 9 9 9 10 10 11 11 9
8 2 3 3 3 2 4 1 3 2 3 2 2 2 1 1 1 2 1 0 1 2 2 3 5 6 8 8 9 8 6 6 5 5 5 5 4 4 4 6 7 8 8 8 7 8 8 7 8 8 9 10 10 10
3 3 4 3 2 4 3 2 2 3 3 3 2 1 2 2 3 1 1 1 2 3 4 6 7 7 5 7 5 5 5 4 6 5 4 4 4 5 5 5 6 7 7 7 7 8 9 9 7 8 9 10 10 9
4 3 2 4 3 3 4 4 3 2 3 3 3 1 1 2 2 1 1 1 3 4 4 5 5 4 4 5 5 5 6 6 5 6 4 4 5 5 5 5 6 4 5 7 7 8 8 7 8 8 8 8 9 9
2 2 1 3 3 2 3 4 7 5 4 3 3 3 2 1 1 1 0 0 3 5 7 8 8 6 4 4 7 6 6 5 5 5 5 4 3 4 6 7 7 5 3 4 5 6 6 5 6 7 6 6 3 6
3 3 2 2 4 4 4 2 3 4 4 3 2 2 2 1 2 2 0 1 1 2 4 6 7 6 5 7 5 6 6 6 4 3 6 5 4 4 5 6 7 5 3 2 2 2 4 3 3 3 4 4 5 5
2 3 4 5 4 3 5 4 3 3 2 0 2 1 3 2 1 2 2 1 0 2 4 3 3 3 5 7 8 8 7 6 7 7 6 4 4 4 4 4 4 3 1 0 2 2 2 1 4 5 5 6 5 5
4 3 3 7 5 4 4 4 4 2 3 1 0 3 3 1 0 1 2 2 3 4 6 6 3 7 6 6 7 8 9 10 12 11 11 7 7 7 6 5 4 3 1 2 4 3 4 4 5 5 6 5 5 4
3 2 3 4 4 5 4 4 3 3 3 4 4 6 9 9 8 5 4 3 4 5 6 7 7 7 8 10 9 9 8 9 9 8 9 9 8 7 8 8 6 5 3 3 5 7 5 7 6 5 5 4 3 3
3 2 4 5 5 7 10 9 9 10 10 9 9 10 11 7 6 7 9 8 7 6 8 9 9 7 11 11 10 11 10 10 12 12 8 3 4 6 8 9 7 6 6 6 6 5 5 4 4 5 5 4 4 2
3 4 3 4 4 6 12 7 5 4 4 4 5 4 3 4 5 3 2 6 8 9 10 11 11 10 10 7 6 8 6 8 12 12 14 8 5 5 6 7 8 8 8 7 7 6 7 5 5 5 5 4 3 2
4 7 6 3 3 4 3 4 4 5 5 4 4 5 6 5 5 1 2 1 2 5 8 10 9 7 13 11 12 10 8 6 9 9 10 8 6 5 5 6 7 8 9 8 8 8 8 7 6 5 4 3 3 3
Wind_Direction
322 323 324 325 324 325 327 327 326 327 330 331 332 334 336 335 330 330 285 203 267 262 280 232 248 245 242 212 256 38 289 191 140 195 212 210 231 214 253 264 235 229 198 199 202 226 261 147 134 225 243 175 202 196
320 321 322 322 321 320 323 327 331 328 328 329 330 330 331 332 330 317 272 179 176 246 291 279 274 271 261 269 263 193 291 243 222 149 214 153 211 199 243 270 178 239 230 242 211 218 109 192 209 232 341 286 259 256
320 321 321 321 320 319 322 329 330 325 326 326 326 327 326 328 326 276 257 210 217 265 262 277 258 25 211 224 227 248 206 255 202 342 240 228 236 183 236 237 251 72 16 266 305 69 349 294 289 339 341 326 318 299
319 320 320 320 319 321 327 327 327 322 322 323 323 324 324 324 316 267 201 175 252 269 281 263 327 318 359 98 186 218 298 88 69 270 249 58 355 2 7 14 23 353 331 335 279 26 341 84 346 333 323 311 301 301
321 319 319 319 321 323 323 324 323 319 319 320 322 323 324 323 308 211 208 207 257 296 307 305 310 246 322 11 63 124 188 221 241 250 27 31 27 352 61 79 71 346 343 335 313 319 311 302 322 326 323 319 315 301
326 325 323 321 320 323 324 323 318 316 317 319 321 323 324 318 153 175 165 185 202 210 265 284 348 282 345 35 60 48 41 46 43 52 33 72 357 18 48 28 209 315 311 310 304 304 278 294 307 326 316 314 309 301
330 328 327 326 324 323 322 320 321 320 319 316 320 321 326 112 153 327 28 93 162 201 257 297 334 73 339 3 58 49 43 48 54 89 60 11 24 19 80 2 317 325 315 307 291 331 308 289 303 307 319 315 314 310
327 325 326 326 324 324 324 325 322 320 316 313 321 317 309 196 286 164 127 113 144 221 245 309 317 315 14 17 51 356 81 47 33 74 92 22 45 29 126 337 327 327 327 321 318 313 299 290 298 314 304 324 317 321
323 323 324 323 326 331 329 327 326 322 315 316 316 317 128 213 204 53 313 319 171 280 257 231 349 333 351 60 41 114 84 69 42 65 49 275 159 72 349 336 335 333 322 309 313 313 307 306 304 305 317 313 314 316
322 323 322 323 325 325 325 328 326 327 316 317 343 321 183 41 309 299 152 201 160 130 218 258 83 327 332 10 46 322 55 87 62 37 329 331 267 177 357 333 322 319 318 311 308 303 311 305 305 302 300 297 294 303
321 321 322 325 326 329 326 327 329 333 338 2 2 343 319 306 268 207 176 225 143 220 183 29 222 311 65 319 20 20 83 112 106 89 289 272 266 279 341 330 330 323 322 322 306 306 300 283 293 290 291 289 289 293
320 320 322 324 326 328 324 321 344 345 338 305 302 296 283 290 245 211 201 165 223 7 129 323 38 325 83 318 202 37 94 116 79 65 252 245 56 346 337 331 333 331 326 313 309 307 309 302 294 293 289 283 284 284
318 321 323 324 325 320 321 333 332 324 306 258 219 260 320 240 62 183 135 96 325 75 68 327 59 17 156 49 83 81 74 66 150 145 265 254 354 340 339 337 330 333 328 324 318 316 307 303 294 284 282 286 280 282
320 322 321 323 323 341 334 330 327 323 283 284 327 331 271 330 10 30 34 57 54 52 27 90 95 29 16 68 18 82 86 194 274 289 310 352 348 340 342 335 337 334 336 331 327 321 316 304 288 284 285 269 266 300
325 321 317 316 346 338 330 323 318 229 204 257 227 284 260 333 256 315 332 151 71 88 170 135 102 15 48 82 31 119 141 47 255 323 331 354 343 350 343 339 342 339 341 340 343 354 356 355 7 20 18 67 103 349
327 318 275 329 335 328 321 323 293 169 213 229 244 266 250 273 5 104 107 103 114 128 139 63 90 80 66 35 98 69 349 344 333 332 8 345 2 354 341 348 343 346 348 351 350 2 5 11 20 28 40 41 45 56
320 244 306 324 326 320 315 278 252 230 259 230 249 234 266 275 269 312 272 69 144 231 55 76 64 58 120 95 97 194 278 344 6 45 34 19 6 346 351 353 355 354 354 0 3 8 12 19 32 33 34 38 51 52
272 303 309 315 325 311 278 250 282 275 258 242 265 333 223 265 298 205 150 127 72 98 137 76 126 148 98 122 166 205 245 111 95 96 33 37 359 359 2 0 5 3 5 13 16 18 19 29 33 29 30 33 51 49
300 302 304 305 308 306 309 300 266 294 284 305 283 267 278 300 251 325 101 84 75 93 125 124 107 131 157 195 219 181 167 140 103 95 70 44 12 14 12 18 18 18 21 23 19 27 31 33 36 34 34 40 53 50
304 299 288 296 269 247 270 257 245 274 287 347 283 303 328 20 88 127 125 103 113 161 115 102 151 173 173 146 179 92 101 125 133 116 68 58 23 24 27 29 34 23 25 32 35 31 37 42 36 39 45 48 56 55
321 305 326 316 208 232 275 295 262 267 311 294 310 313 359 152 170 186 161 150 192 95 138 168 139 114 88 88 98 114 121 119 88 70 79 62 26 38 41 37 44 49 47 41 46 41 41 43 49 57 55 56 60 61
280 321 296 300 270 204 252 226 275 315 270 290 290 247 246 194 174 177 129 196 223 106 140 150 148 143 133 131 131 124 119 114 106 108 104 95 62 45 45 40 41 53 55 45 53 56 56 57 63 63 67 74 68 62
297 240 253 259 283 274 267 186 269 241 274 289 278 256 213 160 87 170 198 257 69 95 125 110 113 119 121 117 122 122 125 129 124 118 114 103 92 78 75 58 51 57 67 66 62 70 76 75 68 75 74 71 75 76
257 263 290 308 272 275 288 266 242 271 265 248 240 211 148 126 159 218 262 184 106 139 148 136 138 120 112 140 152 152 145 142 132 132 139 138 113 82 74 74 73 72 78 80 78 78 79 79 87 79 76 78 76 76
314 302 283 289 236 289 296 301 270 280 303 346 303 156 116 166 171 211 266 141 160 174 152 162 181 173 157 156 146 145 154 166 161 160 157 163 120 119 102 95 91 84 99 95 85 83 82 82 80 80 79 78 79 79
276 275 130 310 325 344 310 326 358 349 319 298 9 358 295 209 235 207 161 107 184 181 183 190 181 167 174 169 159 167 167 167 156 166 164 180 165 142 133 131 127 114 99 100 91 83 82 83 85 83 81 80 56 74
305 304 317 291 299 280 273 276 259 257 245 264 328 331 321 267 205 83 37 206 249 202 190 179 183 185 163 153 136 134 138 156 166 159 146 166 166 152 149 141 135 127 142 125 92 58 53 62 104 101 90 66 56 59
292 281 289 330 313 309 292 289 270 263 296 331 314 246 274 269 138 72 49 42 306 82 102 130 132 147 144 150 141 137 134 132 122 118 124 138 163 169 162 148 140 152 176 30 296 262 225 97 118 106 100 94 89 75
256 253 283 277 268 256 247 238 246 268 9 356 229 275 277 294 37 320 324 358 111 135 136 143 125 123 115 136 143 153 153 160 161 167 173 168 172 189 190 192 185 189 171 123 61 24 117 118 117 114 112 103 96 88
270 204 255 245 238 250 239 222 267 294 299 293 284 279 275 272 273 272 256 210 188 201 186 169 153 151 150 164 167 174 185 189 193 186 187 193 197 184 180 190 191 182 163 144 117 108 115 121 129 127 126 124 123 115
277 239 247 235 259 262 264 277 278 276 274 269 252 251 259 274 274 251 235 230 216 181 166 174 180 180 173 170 176 179 194 202 210 209 205 163 179 190 196 195 188 178 173 167 158 155 153 152 138 138 137 124 107 79
243 231 250 254 272 286 295 262 249 238 238 220 238 213 227 225 256 258 210 167 177 191 199 188 184 191 186 181 178 190 201 187 189 199 202 206 209 197 190 184 182 182 182 181 178 172 172 164 160 162 160 159 156 146
249 256 246 254 256 262 270 272 267 267 233 243 243 220 211 206 245 257 103 251 228 209 197 200 195 173 174 175 180 193 189 183 176 169 171 173 171 159 164 163 163 174 179 183 181 178 179 181 180 178 180 176 172 160